Location: Catstown
(52.4386°N, 7.2633°W)
Time: 10:49:54
(UTC+00:00)

Cosmos 1833 Rocket - Pass Details

Date: 21 January 2021
Orbit: 833 x 839 km, 71.0° (Epoch: 24 February)

Event Time Altitude Azimuth Distance (km) Brightness Sun altitude
Rises 17:27:31 0° 325° (NW) 3,393 6.0 -5.0°
Reaches altitude 10° 17:30:52 10° 345° (NNW) 2,456 5.0 -5.5°
Maximum altitude 17:34:32 17° 26° (NNE) 1,983 4.2 -6.0°
Drops below altitude 10° 17:38:12 10° 68° (ENE) 2,453 4.4 -6.5°
Enters shadow 17:39:00 - 74° (ENE) 2,652 4.6 -6.6°
